Dades meteomassalio
Diari Summary for Juny 22, 2017 Units:  English    Metric   Both
« Previous Day
Next Day »
Diari Semanal Mensual Anual Personalitzat
  Maxima: Minima: Mijana:
Temperatura: TemperatureC °F 18.4 °F 28.9 °F
Rosada: DewpointC °F 12.3 °F 14.2 °F
Humitat: Humidity % 22 % 44 %
Velocitat del vent: WindSpeedKMH mph 0.0 mph 5.1 mph
Racha vent: WindSpeedGustKMH mph - -
Vent:- - ESE
Pressio: PressurehPa in 1013.8 in -
Pluja: 0.0 in    
Historical Graphs
 
 
Tabular Data for Juny 22, 2017
Time Temperature Dew Point Pressure Wind Wind Speed Wind Gust Humidity Rainfall Rate (Hourly) solar Conditions
TemperatureC °F DewpointC °F PressurehPa in Calm     Humidity % HourlyPrecipMM in SolarRadiationWatts/m^2 W/m2 Conditions
00:03 26.4 °F 14.8 °F 1014.8 in Calm     49 % 0.0 in 0.0 W/m2 CLR
00:08 26.1 °F 14.6 °F 1014.8 in Calm     49 % 0.0 in 0.0 W/m2 CLR
00:13 25.8 °F 14.6 °F 1014.8 in Calm     50 % 0.0 in 0.0 W/m2 CLR
00:18 25.8 °F 14.3 °F 1014.8 in Calm     49 % 0.0 in 0.0 W/m2 CLR
00:23 25.8 °F 14.6 °F 1014.8 in Calm     50 % 0.0 in 0.0 W/m2 CLR
00:24 25.8 °F 14.6 °F 1014.8 in Calm     50 % 0.0 in 0.0 W/m2 CLR
00:29 25.7 °F 14.8 °F 1015.1 in Calm     51 % 0.0 in 0.0 W/m2 CLR
00:34 25.6 °F 14.7 °F 1015.1 in Calm     51 % 0.0 in 0.0 W/m2 CLR
00:39 25.3 °F 14.4 °F 1015.1 in Calm     51 % 0.0 in 0.0 W/m2 CLR
00:44 25.1 °F 14.6 °F 1015.1 in Calm     52 % 0.0 in 0.0 W/m2 CLR
00:49 25.0 °F 14.4 °F 1015.1 in Calm     52 % 0.0 in 0.0 W/m2 CLR
00:54 24.9 °F 14.4 °F 1015.1 in Calm     52 % 0.0 in 0.0 W/m2 CLR
00:59 24.8 °F 14.3 °F 1015.1 in Calm     52 % 0.0 in 0.0 W/m2 CLR
01:04 24.7 °F 14.5 °F 1015.1 in Calm     53 % 0.0 in 0.0 W/m2 CLR
01:09 24.6 °F 14.3 °F 1015.1 in Calm     53 % 0.0 in 0.0 W/m2 CLR
01:14 24.3 °F 14.4 °F 1015.1 in Calm     54 % 0.0 in 0.0 W/m2 CLR
01:19 24.2 °F 14.6 °F 1015.1 in Calm     55 % 0.0 in 0.0 W/m2 CLR
01:24 24.2 °F 14.6 °F 1015.1 in Calm     55 % 0.0 in 0.0 W/m2 CLR
01:29 24.0 °F 14.4 °F 1015.1 in Calm     55 % 0.0 in 0.0 W/m2 CLR
01:34 23.8 °F 14.5 °F 1015.1 in Calm     56 % 0.0 in 0.0 W/m2 CLR
01:39 23.6 °F 14.6 °F 1015.1 in Calm     57 % 0.0 in 0.0 W/m2 CLR
01:44 23.4 °F 14.7 °F 1015.1 in Calm     58 % 0.0 in 0.0 W/m2 CLR
01:49 23.2 °F 14.5 °F 1015.1 in Calm     58 % 0.0 in 0.0 W/m2 CLR
01:54 23.1 °F 14.6 °F 1015.1 in Calm     59 % 0.0 in 0.0 W/m2 CLR
01:59 22.8 °F 14.4 °F 1015.1 in Calm     59 % 0.0 in 0.0 W/m2 CLR
02:04 22.7 °F 14.6 °F 1015.1 in Calm     60 % 0.0 in 0.0 W/m2 CLR
02:09 22.7 °F 14.8 °F 1015.1 in Calm     61 % 0.0 in 0.0 W/m2 CLR
02:14 22.8 °F 14.6 °F 1015.1 in Calm     60 % 0.0 in 0.0 W/m2 CLR
02:19 22.7 °F 14.6 °F 1015.1 in Calm     60 % 0.0 in 0.0 W/m2 CLR
02:24 22.6 °F 14.4 °F 1015.1 in Calm     60 % 0.0 in 0.0 W/m2 CLR
02:29 22.4 °F 14.2 °F 1015.1 in Calm     60 % 0.0 in 0.0 W/m2 CLR
02:34 22.2 °F 14.3 °F 1015.1 in Calm     61 % 0.0 in 0.0 W/m2 CLR
02:39 22.0 °F 14.6 °F 1015.1 in Calm     63 % 0.0 in 0.0 W/m2 CLR
02:44 21.8 °F 14.7 °F 1015.1 in Calm     64 % 0.0 in 0.0 W/m2 CLR
02:49 21.7 °F 14.6 °F 1015.1 in Calm     64 % 0.0 in 0.0 W/m2 CLR
02:54 21.7 °F 14.3 °F 1015.1 in Calm     63 % 0.0 in 0.0 W/m2 CLR
02:59 21.6 °F 14.2 °F 1015.1 in Calm     63 % 0.0 in 0.0 W/m2 CLR
03:04 21.4 °F 14.1 °F 1015.1 in Calm     63 % 0.0 in 0.0 W/m2 CLR
03:09 21.3 °F 14.4 °F 1015.1 in Calm     65 % 0.0 in 0.0 W/m2 CLR
03:14 21.2 °F 14.3 °F 1015.1 in Calm     65 % 0.0 in 0.0 W/m2 CLR
03:19 21.1 °F 14.2 °F 1015.1 in Calm     65 % 0.0 in 0.0 W/m2 CLR
03:24 20.9 °F 14.1 °F 1014.8 in Calm     65 % 0.0 in 0.0 W/m2 CLR
03:30 20.9 °F 14.1 °F 1014.8 in Calm     65 % 0.0 in 0.0 W/m2 CLR
03:35 20.7 °F 14.2 °F 1014.8 in Calm     66 % 0.0 in 0.0 W/m2 CLR
03:40 20.7 °F 14.3 °F 1014.8 in Calm     67 % 0.0 in 0.0 W/m2 CLR
03:45 20.8 °F 14.4 °F 1014.8 in Calm     67 % 0.0 in 0.0 W/m2 CLR
03:50 20.8 °F 14.4 °F 1015.1 in Calm     67 % 0.0 in 0.0 W/m2 CLR
03:55 20.7 °F 14.2 °F 1015.1 in Calm     66 % 0.0 in 0.0 W/m2 CLR
04:00 20.5 °F 13.9 °F 1015.1 in Calm     66 % 0.0 in 0.0 W/m2 CLR
04:05 20.3 °F 14.0 °F 1015.1 in Calm     67 % 0.0 in 0.0 W/m2 CLR
04:15 20.1 °F 14.0 °F 1014.8 in Calm     68 % 0.0 in 0.0 W/m2 CLR
04:20 20.0 °F 13.9 °F 1014.8 in Calm     68 % 0.0 in 0.0 W/m2 CLR
04:25 19.9 °F 13.8 °F 1015.1 in Calm     68 % 0.0 in 0.0 W/m2 CLR
04:30 19.9 °F 14.1 °F 1015.1 in Calm     69 % 0.0 in 0.0 W/m2 CLR
04:35 19.8 °F 14.0 °F 1014.8 in Calm     69 % 0.0 in 0.0 W/m2 CLR
04:40 19.8 °F 14.0 °F 1014.8 in Calm     69 % 0.0 in 0.0 W/m2 CLR
04:45 19.8 °F 14.0 °F 1015.1 in Calm     69 % 0.0 in 0.0 W/m2 CLR
04:50 19.7 °F 13.9 °F 1015.1 in Calm     69 % 0.0 in 0.0 W/m2 CLR
04:55 19.6 °F 13.8 °F 1015.1 in Calm     69 % 0.0 in 0.0 W/m2 CLR
05:00 19.6 °F 13.9 °F 1015.1 in Calm     70 % 0.0 in 0.0 W/m2 CLR
05:02 19.5 °F 13.9 °F 1015.1 in Calm     70 % 0.0 in 0.0 W/m2 CLR
05:07 19.4 °F 13.8 °F 1015.1 in Calm     70 % 0.0 in 0.0 W/m2 CLR
05:12 19.3 °F 13.7 °F 1015.1 in Calm     70 % 0.0 in 0.0 W/m2 CLR
05:17 19.2 °F 13.6 °F 1015.1 in Calm     70 % 0.0 in 0.0 W/m2 CLR
05:22 19.1 °F 13.5 °F 1015.1 in Calm     70 % 0.0 in 0.0 W/m2 CLR
05:27 19.0 °F 13.6 °F 1015.1 in Calm     71 % 0.0 in 0.0 W/m2 CLR
05:32 18.9 °F 13.5 °F 1015.1 in Calm     71 % 0.0 in 0.0 W/m2 CLR
05:37 18.8 °F 13.7 °F 1015.5 in Calm     72 % 0.0 in 0.0 W/m2 CLR
05:42 18.8 °F 13.4 °F 1015.5 in Calm     71 % 0.0 in 0.0 W/m2 CLR
05:47 18.8 °F 13.6 °F 1015.5 in Calm     72 % 0.0 in 0.0 W/m2 CLR
05:52 18.7 °F 13.5 °F 1015.5 in Calm     72 % 0.0 in 0.0 W/m2 CLR
05:57 18.7 °F 13.5 °F 1015.5 in Calm     72 % 0.0 in 0.0 W/m2 CLR
06:02 18.6 °F 13.6 °F 1015.5 in Calm     73 % 0.0 in 0.0 W/m2 CLR
06:07 18.5 °F 13.6 °F 1015.5 in Calm     73 % 0.0 in 0.0 W/m2 CLR
06:12 18.5 °F 13.6 °F 1015.5 in Calm     73 % 0.0 in 0.0 W/m2 CLR
06:17 18.4 °F 13.5 °F 1015.5 in Calm     73 % 0.0 in 0.0 W/m2 CLR
06:22 18.4 °F 13.5 °F 1015.8 in Calm     73 % 0.0 in 0.0 W/m2 OVC
06:27 18.5 °F 13.6 °F 1015.5 in Calm     73 % 0.0 in 0.0 W/m2 OVC
06:32 18.6 °F 13.4 °F 1015.5 in Calm     72 % 0.0 in 7.0 W/m2 OVC
06:37 18.7 °F 13.5 °F 1015.5 in Calm     72 % 0.0 in 9.0 W/m2 BKN
06:42 18.7 °F 13.3 °F 1015.5 in Calm     71 % 0.0 in 12.0 W/m2 BKN
06:47 18.6 °F 13.4 °F 1015.5 in Calm     72 % 0.0 in 18.0 W/m2 BKN
06:52 18.6 °F 13.4 °F 1015.8 in Calm     72 % 0.0 in 23.0 W/m2 BKN
06:57 18.5 °F 13.3 °F 1015.8 in Calm     72 % 0.0 in 26.0 W/m2 BKN
07:02 18.5 °F 13.3 °F 1015.8 in Calm     72 % 0.0 in 32.0 W/m2 BKN
07:07 18.6 °F 13.4 °F 1015.8 in Calm     72 % 0.0 in 39.0 W/m2 BKN
07:12 18.7 °F 13.5 °F 1015.8 in Calm     72 % 0.0 in 47.0 W/m2 SCT
07:17 18.8 °F 13.4 °F 1015.8 in Calm     71 % 0.0 in 56.0 W/m2 SCT
07:22 19.0 °F 13.6 °F 1015.8 in Calm     71 % 0.0 in 65.0 W/m2 SCT
07:27 19.2 °F 13.6 °F 1015.8 in Calm     70 % 0.0 in 74.0 W/m2 FEW
07:32 19.4 °F 13.8 °F 1015.8 in Calm     70 % 0.0 in 76.0 W/m2 FEW
07:37 19.6 °F 13.8 °F 1015.8 in Calm     69 % 0.0 in 98.0 W/m2 FEW
07:42 19.8 °F 14.0 °F 1015.8 in Calm     69 % 0.0 in 109.0 W/m2 CLR
07:47 20.1 °F 14.0 °F 1015.8 in Calm     68 % 0.0 in 100.0 W/m2 CLR
07:52 20.4 °F 14.1 °F 1016.1 in Calm     67 % 0.0 in 102.0 W/m2 CLR
07:57 20.7 °F 14.2 °F 1015.8 in Calm     66 % 0.0 in 123.0 W/m2 CLR
08:02 21.1 °F 14.2 °F 1016.1 in Calm     65 % 0.0 in 132.0 W/m2 CLR
08:07 21.4 °F 14.1 °F 1016.1 in Calm     63 % 0.0 in 183.0 W/m2 CLR
08:12 21.7 °F 14.4 °F 1016.1 in Calm     63 % 0.0 in 200.0 W/m2 CLR
08:17 22.2 °F 14.8 °F 1016.1 in Calm     63 % 0.0 in 214.0 W/m2 CLR
08:22 22.7 °F 15.3 °F 1016.1 in Calm     63 % 0.0 in 229.0 W/m2 CLR
08:27 23.0 °F 15.3 °F 1016.1 in Calm     62 % 0.0 in 241.0 W/m2 CLR
08:32 23.2 °F 15.2 °F 1016.1 in Calm     61 % 0.0 in 255.0 W/m2 CLR
08:37 23.5 °F 15.0 °F 1016.1 in Calm     59 % 0.0 in 269.0 W/m2 CLR
08:42 23.8 °F 15.1 °F 1016.1 in Calm     58 % 0.0 in 287.0 W/m2 CLR
08:47 24.1 °F 15.3 °F 1016.1 in Calm     58 % 0.0 in 299.0 W/m2 CLR
08:52 24.4 °F 14.8 °F 1016.1 in Calm     55 % 0.0 in 311.0 W/m2 CLR
08:57 24.9 °F 14.7 °F 1016.1 in Calm     53 % 0.0 in 327.0 W/m2 CLR
09:02 25.3 °F 15.1 °F 1016.5 in Calm     53 % 0.0 in 345.0 W/m2 CLR
09:07 25.7 °F 15.4 °F 1016.5 in Calm     53 % 0.0 in 359.0 W/m2 CLR
09:12 26.2 °F 15.2 °F 1016.5 in Calm     51 % 0.0 in 374.0 W/m2 CLR
09:17 26.6 °F 15.3 °F 1016.5 in Calm     50 % 0.0 in 387.0 W/m2 CLR
09:22 26.8 °F 15.2 °F 1016.5 in Calm     49 % 0.0 in 404.0 W/m2 CLR
09:27 27.1 °F 15.1 °F 1016.5 in Calm     48 % 0.0 in 420.0 W/m2 CLR
09:32 27.4 °F 15.4 °F 1016.5 in Calm     48 % 0.0 in 434.0 W/m2 CLR
09:37 27.7 °F 15.4 °F 1016.5 in Calm     47 % 0.0 in 448.0 W/m2 CLR
09:42 27.9 °F 15.6 °F 1016.5 in Calm     47 % 0.0 in 462.0 W/m2 CLR
09:48 28.1 °F 15.3 °F 1016.5 in Calm     46 % 0.0 in 482.0 W/m2 CLR
09:53 28.4 °F 15.7 °F 1016.5 in Calm     46 % 0.0 in 497.0 W/m2 CLR
09:58 28.8 °F 15.7 °F 1016.5 in Calm     45 % 0.0 in 512.0 W/m2 CLR
10:03 29.1 °F 15.9 °F 1016.5 in Calm     45 % 0.0 in 527.0 W/m2 CLR
10:08 29.4 °F 15.9 °F 1016.5 in Calm     44 % 0.0 in 543.0 W/m2 CLR
10:13 29.6 °F 15.7 °F 1016.5 in Calm     43 % 0.0 in 557.0 W/m2 CLR
10:18 29.8 °F 16.3 °F 1016.1 in Calm     44 % 0.0 in 570.0 W/m2 CLR
10:23 30.3 °F 16.3 °F 1016.1 in Calm     43 % 0.0 in 584.0 W/m2 CLR
10:28 30.6 °F 16.2 °F 1016.1 in Calm     42 % 0.0 in 599.0 W/m2 CLR
10:33 30.7 °F 16.3 °F 1016.1 in Calm     42 % 0.0 in 610.0 W/m2 CLR
10:38 30.7 °F 16.3 °F 1016.1 in ENE 7.4 mph 7.4 mph 42 % 0.0 in 624.0 W/m2 CLR
10:43 30.7 °F 16.3 °F 1016.1 in ENE 7.4 mph 7.4 mph 42 % 0.0 in 636.0 W/m2 CLR
10:48 31.1 °F 16.7 °F 1016.1 in NE 7.4 mph 7.4 mph 42 % 0.0 in 650.0 W/m2 CLR
10:53 31.4 °F 16.6 °F 1016.1 in ENE 11.1 mph 11.1 mph 41 % 0.0 in 663.0 W/m2 CLR
10:58 31.6 °F 16.7 °F 1016.1 in ENE 5.6 mph   41 % 0.0 in 675.0 W/m2 CLR
11:03 31.6 °F 16.8 °F 1016.1 in ENE 5.6 mph 5.6 mph 41 % 0.0 in 687.0 W/m2 CLR
11:08 31.9 °F 17.1 °F 1016.1 in NE 5.6 mph 5.6 mph 41 % 0.0 in 700.0 W/m2 CLR
11:13 32.1 °F 16.4 °F 1016.1 in NE 3.2 mph 3.2 mph 39 % 0.0 in 712.0 W/m2 CLR
11:18 32.2 °F 16.5 °F 1016.1 in ENE 5.6 mph 5.6 mph 39 % 0.0 in 724.0 W/m2 CLR
11:23 32.4 °F 16.2 °F 1016.1 in NE 3.7 mph 3.7 mph 38 % 0.0 in 729.0 W/m2 CLR
11:28 32.5 °F 16.3 °F 1016.1 in Calm     38 % 0.0 in 745.0 W/m2 CLR
11:33 32.8 °F 15.8 °F 1016.1 in ENE 5.6 mph 5.6 mph 36 % 0.0 in 758.0 W/m2 CLR
11:38 33.1 °F 15.6 °F 1016.1 in Calm     35 % 0.0 in 766.0 W/m2 CLR
11:43 33.3 °F 15.7 °F 1016.1 in SSE 1.9 mph 1.9 mph 35 % 0.0 in 775.0 W/m2 CLR
11:48 33.3 °F 15.8 °F 1016.1 in Calm     35 % 0.0 in 780.0 W/m2 CLR
11:53 33.6 °F 16.1 °F 1016.1 in ENE 7.4 mph 7.4 mph 35 % 0.0 in 793.0 W/m2 CLR
11:56 33.4 °F 15.8 °F 1016.1 in ESE 3.7 mph   35 % 0.0 in 800.0 W/m2 CLR
12:01 33.4 °F 16.3 °F 1016.1 in NNE 3.7 mph 3.7 mph 36 % 0.0 in 809.0 W/m2 CLR
12:06 33.6 °F 16.5 °F 1016.1 in ENE 11.1 mph 11.1 mph 36 % 0.0 in 814.0 W/m2 CLR
12:11 33.8 °F 15.8 °F 1016.1 in NE 1.9 mph   34 % 0.0 in 823.0 W/m2 CLR
12:16 34.0 °F 16.4 °F 1016.1 in ENE 3.7 mph 3.7 mph 35 % 0.0 in 833.0 W/m2 CLR
12:21 34.3 °F 16.2 °F 1016.1 in ENE 7.4 mph 7.4 mph 34 % 0.0 in 837.0 W/m2 CLR
12:26 34.3 °F 16.2 °F 1015.8 in Calm     34 % 0.0 in 847.0 W/m2 CLR
12:31 34.3 °F 16.2 °F 1016.1 in ENE 8.0 mph 8.0 mph 34 % 0.0 in 856.0 W/m2 CLR
12:36 34.4 °F 15.8 °F 1016.1 in Calm     33 % 0.0 in 861.0 W/m2 CLR
12:41 34.6 °F 15.9 °F 1015.8 in ENE 3.7 mph 3.7 mph 33 % 0.0 in 868.0 W/m2 CLR
12:46 34.4 °F 15.8 °F 1015.8 in East 4.8 mph 4.8 mph 33 % 0.0 in 870.0 W/m2 CLR
12:48 34.4 °F 15.8 °F 1015.8 in ENE 7.4 mph 7.4 mph 33 % 0.0 in 877.0 W/m2 CLR
12:53 34.4 °F 15.8 °F 1015.8 in NE 12.9 mph 12.9 mph 33 % 0.0 in 881.0 W/m2 CLR
12:58 34.7 °F 15.6 °F 1015.8 in ENE 3.7 mph   32 % 0.0 in 886.0 W/m2 CLR
13:03 34.9 °F 15.8 °F 1015.8 in North 5.6 mph 5.6 mph 32 % 0.0 in 888.0 W/m2 CLR
13:08 35.1 °F 15.9 °F 1015.8 in ENE 5.6 mph 5.6 mph 32 % 0.0 in 895.0 W/m2 CLR
13:13 34.9 °F 15.7 °F 1015.5 in Calm     32 % 0.0 in 902.0 W/m2 CLR
13:18 35.3 °F 16.1 °F 1015.5 in ENE 16.7 mph 16.7 mph 32 % 0.0 in 893.0 W/m2 CLR
13:23 35.3 °F 16.1 °F 1015.5 in ENE 14.8 mph 14.8 mph 32 % 0.0 in 907.0 W/m2 CLR
13:28 35.7 °F 15.4 °F 1015.5 in North 7.4 mph 7.4 mph 30 % 0.0 in 909.0 W/m2 CLR
13:33 35.8 °F 15.0 °F 1015.5 in East 13.0 mph 13.0 mph 29 % 0.0 in 911.0 W/m2 CLR
13:38 35.9 °F 15.6 °F 1015.5 in Calm   0.2 mph 30 % 0.0 in 912.0 W/m2 CLR
13:40 35.9 °F 15.7 °F 1015.5 in NNE 1.9 mph 1.9 mph 30 % 0.0 in 912.0 W/m2 CLR
13:45 36.2 °F 14.8 °F 1015.5 in East 14.5 mph 14.5 mph 28 % 0.0 in 916.0 W/m2 CLR
13:50 36.2 °F 14.8 °F 1015.1 in NE 1.9 mph   28 % 0.0 in 918.0 W/m2 CLR
13:55 36.2 °F 14.2 °F 1015.1 in East 16.7 mph 16.7 mph 27 % 0.0 in 919.0 W/m2 CLR
14:00 36.1 °F 14.1 °F 1015.1 in SSE 14.8 mph 14.8 mph 27 % 0.0 in 921.0 W/m2 CLR
14:05 36.0 °F 14.1 °F 1015.1 in East 1.9 mph 1.9 mph 27 % 0.0 in 923.0 W/m2 CLR
14:10 36.2 °F 13.7 °F 1015.1 in ESE 18.5 mph 18.5 mph 26 % 0.0 in 921.0 W/m2 CLR
14:15 36.2 °F 13.6 °F 1015.1 in East 8.0 mph 8.0 mph 26 % 0.0 in 923.0 W/m2 CLR
14:20 36.4 °F 14.4 °F 1015.1 in SSE 5.6 mph   27 % 0.0 in 919.0 W/m2 CLR
14:25 36.9 °F 14.3 °F 1015.1 in East 14.5 mph 14.5 mph 26 % 0.0 in 919.0 W/m2 CLR
14:30 36.6 °F 13.4 °F 1015.1 in SSE 11.1 mph 11.1 mph 25 % 0.0 in 918.0 W/m2 CLR
14:35 36.4 °F 13.2 °F 1015.1 in ESE 18.5 mph 18.5 mph 25 % 0.0 in 916.0 W/m2 CLR
14:40 36.3 °F 13.2 °F 1015.1 in ESE 18.5 mph 18.5 mph 25 % 0.0 in 905.0 W/m2 CLR
14:45 36.4 °F 13.3 °F 1015.1 in SSE 12.9 mph 12.9 mph 25 % 0.0 in 893.0 W/m2 CLR
14:50 36.4 °F 12.6 °F 1015.1 in East 11.1 mph   24 % 0.0 in 891.0 W/m2 CLR
14:55 36.4 °F 12.6 °F 1014.8 in ESE 13.0 mph 13.0 mph 24 % 0.0 in 896.0 W/m2 CLR
15:00 36.3 °F 12.6 °F 1014.8 in East 12.9 mph 12.9 mph 24 % 0.0 in 879.0 W/m2 CLR
15:05 36.6 °F 12.7 °F 1014.8 in East 14.8 mph 14.8 mph 24 % 0.0 in 879.0 W/m2 CLR
15:10 36.6 °F 12.7 °F 1014.8 in SSE 13.0 mph 13.0 mph 24 % 0.0 in 872.0 W/m2 CLR
15:15 36.6 °F 12.8 °F 1014.8 in East 11.3 mph 11.3 mph 24 % 0.0 in 881.0 W/m2 CLR
15:20 36.7 °F 12.8 °F 1014.8 in ESE 6.4 mph 6.4 mph 24 % 0.0 in 875.0 W/m2 CLR
15:25 36.8 °F 12.9 °F 1014.8 in South 9.3 mph 9.3 mph 24 % 0.0 in 828.0 W/m2 CLR
15:30 36.8 °F 12.9 °F 1014.4 in ESE 11.3 mph 13.2 mph 24 % 0.0 in 812.0 W/m2 CLR
15:35 36.7 °F 12.8 °F 1014.4 in Calm     24 % 0.0 in 846.0 W/m2 CLR
15:36 36.8 °F 12.9 °F 1014.4 in Calm     24 % 0.0 in 849.0 W/m2 CLR
15:41 37.1 °F 13.2 °F 1014.4 in East 16.7 mph 16.7 mph 24 % 0.0 in 851.0 W/m2 CLR
15:46 37.2 °F 13.3 °F 1014.4 in South 11.1 mph 11.1 mph 24 % 0.0 in 860.0 W/m2 CLR
15:51 37.2 °F 13.3 °F 1014.4 in ESE 9.3 mph 9.3 mph 24 % 0.0 in 849.0 W/m2 CLR
15:56 37.2 °F 12.6 °F 1014.1 in NE 11.1 mph 11.1 mph 23 % 0.0 in 809.0 W/m2 CLR
16:01 37.3 °F 12.7 °F 1014.1 in ENE 14.8 mph 14.8 mph 23 % 0.0 in 826.0 W/m2 CLR
16:06 37.3 °F 12.7 °F 1014.1 in NE 13.0 mph 13.0 mph 23 % 0.0 in 826.0 W/m2 CLR
16:11 37.6 °F 12.9 °F 1014.1 in NNE 9.3 mph 9.3 mph 23 % 0.0 in 810.0 W/m2 CLR
16:16 37.6 °F 12.3 °F 1014.1 in North 11.1 mph 11.1 mph 22 % 0.0 in 807.0 W/m2 CLR
16:21 37.7 °F 12.3 °F 1014.1 in ENE 9.3 mph   22 % 0.0 in 789.0 W/m2 CLR
16:26 37.8 °F 12.4 °F 1014.1 in East 3.7 mph   22 % 0.0 in 773.0 W/m2 CLR
16:31 37.9 °F 13.2 °F 1014.1 in ENE 5.6 mph 5.6 mph 23 % 0.0 in 751.0 W/m2 CLR
16:36 37.6 °F 12.3 °F 1014.1 in ENE 13.0 mph 13.0 mph 22 % 0.0 in 735.0 W/m2 CLR
16:41 37.7 °F 13.0 °F 1014.1 in East 5.6 mph 5.6 mph 23 % 0.0 in 717.0 W/m2 CLR
16:47 37.3 °F 12.7 °F 1014.1 in East 13.0 mph 13.0 mph 23 % 0.0 in 691.0 W/m2 CLR
16:52 37.2 °F 13.2 °F 1014.1 in ESE 6.4 mph 6.4 mph 24 % 0.0 in 689.0 W/m2 CLR
16:57 37.3 °F 13.3 °F 1014.1 in ESE 14.8 mph 14.8 mph 24 % 0.0 in 682.0 W/m2 CLR
17:02 37.2 °F 13.2 °F 1014.1 in ENE 14.5 mph 14.5 mph 24 % 0.0 in 640.0 W/m2 CLR
17:07 37.1 °F 13.2 °F 1013.8 in Calm     24 % 0.0 in 631.0 W/m2 CLR
17:12 37.1 °F 13.8 °F 1013.8 in ESE 9.3 mph 9.3 mph 25 % 0.0 in 712.0 W/m2 CLR
17:17 37.0 °F 13.7 °F 1013.8 in East 14.8 mph 14.8 mph 25 % 0.0 in 670.0 W/m2 CLR
17:22 36.8 °F 13.6 °F 1013.8 in SE 20.4 mph 20.4 mph 25 % 0.0 in 561.0 W/m2 CLR
17:27 36.6 °F 14.0 °F 1013.8 in East 22.2 mph 22.2 mph 26 % 0.0 in 504.0 W/m2 CLR
17:32 36.3 °F 14.9 °F 1013.8 in SE 18.5 mph 18.5 mph 28 % 0.0 in 533.0 W/m2 CLR
17:37 36.3 °F 14.3 °F 1013.8 in ESE 14.5 mph 14.5 mph 27 % 0.0 in 615.0 W/m2 CLR
17:42 36.5 °F 14.5 °F 1013.8 in ESE 14.8 mph 14.8 mph 27 % 0.0 in 548.0 W/m2 CLR
17:47 36.5 °F 14.5 °F 1013.8 in ESE 18.5 mph 18.5 mph 27 % 0.0 in 591.0 W/m2 CLR
17:52 36.6 °F 15.1 °F 1013.8 in East 13.0 mph 13.0 mph 28 % 0.0 in 561.0 W/m2 CLR
17:57 36.5 °F 14.5 °F 1013.8 in ESE 18.5 mph 18.5 mph 27 % 0.0 in 457.0 W/m2 CLR
18:02 36.3 °F 13.7 °F 1013.8 in ESE 20.4 mph 20.4 mph 26 % 0.0 in 401.0 W/m2 CLR
18:07 36.1 °F 14.2 °F 1013.8 in SE 18.5 mph 18.5 mph 27 % 0.0 in 394.0 W/m2 CLR
18:12 36.2 °F 14.8 °F 1013.8 in ESE 16.1 mph 16.1 mph 28 % 0.0 in 439.0 W/m2 CLR
18:17 36.1 °F 15.3 °F 1013.8 in SE 16.7 mph 16.7 mph 29 % 0.0 in 487.0 W/m2 CLR
18:22 36.0 °F 14.1 °F 1013.8 in ESE 17.7 mph 17.7 mph 27 % 0.0 in 446.0 W/m2 CLR
18:27 35.9 °F 14.6 °F 1013.8 in ESE 18.5 mph 18.5 mph 28 % 0.0 in 390.0 W/m2 CLR
18:32 35.8 °F 13.9 °F 1013.8 in ESE 18.5 mph 18.5 mph 27 % 0.0 in 359.0 W/m2 CLR
18:37 35.8 °F 13.9 °F 1013.8 in ESE 16.7 mph 16.7 mph 27 % 0.0 in 422.0 W/m2 CLR
18:42 35.8 °F 13.3 °F 1013.8 in ESE 18.5 mph 18.5 mph 26 % 0.0 in 494.0 W/m2 CLR
18:47 36.0 °F 14.1 °F 1013.8 in SE 22.2 mph 22.2 mph 27 % 0.0 in 464.0 W/m2 CLR
18:52 35.9 °F 13.9 °F 1013.8 in South 16.7 mph 16.7 mph 27 % 0.0 in 385.0 W/m2 CLR
18:57 35.9 °F 13.9 °F 1013.8 in SE 18.5 mph 18.5 mph 27 % 0.0 in 341.0 W/m2 CLR
19:02 35.7 °F 13.8 °F 1013.8 in SE 20.4 mph 20.4 mph 27 % 0.0 in 308.0 W/m2 CLR
19:03 35.7 °F 13.8 °F 1013.8 in SSE 18.5 mph 18.5 mph 27 % 0.0 in 292.0 W/m2 CLR
19:08 35.6 °F 13.7 °F 1013.8 in ESE 19.3 mph 19.3 mph 27 % 0.0 in 308.0 W/m2 CLR
19:14 35.4 °F 14.2 °F 1013.8 in ESE 17.7 mph 17.7 mph 28 % 0.0 in 281.0 W/m2 CLR
19:19 35.3 °F 14.0 °F 1013.8 in ESE 18.5 mph 18.5 mph 28 % 0.0 in 225.0 W/m2 CLR
19:24 35.1 °F 14.4 °F 1014.1 in ESE 18.5 mph 18.5 mph 29 % 0.0 in 216.0 W/m2 CLR
19:29 35.1 °F 14.3 °F 1013.8 in ESE 14.8 mph 14.8 mph 29 % 0.0 in 185.0 W/m2 CLR
19:34 35.0 °F 14.3 °F 1014.1 in ESE 18.5 mph 18.5 mph 29 % 0.0 in 156.0 W/m2 CLR
19:39 34.9 °F 14.3 °F 1013.8 in ESE 9.3 mph 9.3 mph 29 % 0.0 in 141.0 W/m2 CLR
19:44 34.9 °F 14.2 °F 1014.1 in SE 13.0 mph 13.0 mph 29 % 0.0 in 141.0 W/m2 CLR
19:49 34.8 °F 14.2 °F 1014.1 in SE 16.7 mph 16.7 mph 29 % 0.0 in 128.0 W/m2 CLR
19:54 34.9 °F 14.2 °F 1014.1 in South 22.5 mph 22.5 mph 29 % 0.0 in 134.0 W/m2 CLR
19:59 34.6 °F 14.0 °F 1014.1 in South 20.4 mph 20.4 mph 29 % 0.0 in 125.0 W/m2 CLR
20:04 34.4 °F 13.3 °F 1014.1 in South 18.5 mph 18.5 mph 28 % 0.0 in 114.0 W/m2 CLR
20:09 34.4 °F 13.2 °F 1014.1 in South 18.5 mph 18.5 mph 28 % 0.0 in 91.0 W/m2 CLR
20:14 34.2 °F 13.1 °F 1014.4 in South 16.7 mph 16.7 mph 28 % 0.0 in 74.0 W/m2 CLR
20:19 34.0 °F 12.9 °F 1014.4 in SSE 19.3 mph 19.3 mph 28 % 0.0 in 65.0 W/m2 FEW
20:24 33.9 °F 13.3 °F 1014.4 in South 14.8 mph 14.8 mph 29 % 0.0 in 58.0 W/m2 FEW
20:29 33.8 °F 13.3 °F 1014.4 in SSE 17.7 mph 17.7 mph 29 % 0.0 in 49.0 W/m2 SCT
20:34 33.6 °F 13.1 °F 1014.4 in South 13.0 mph 13.0 mph 29 % 0.0 in 40.0 W/m2 SCT
20:39 33.4 °F 13.0 °F 1014.4 in SSE 7.4 mph 7.4 mph 29 % 0.0 in 37.0 W/m2 BKN
20:44 33.3 °F 13.3 °F 1014.4 in South 14.8 mph 14.8 mph 30 % 0.0 in 35.0 W/m2 BKN
20:50 33.2 °F 13.3 °F 1014.4 in SSE 9.3 mph 9.3 mph 30 % 0.0 in 37.0 W/m2 BKN
20:55 33.0 °F 13.1 °F 1014.4 in SSE 7.4 mph 7.4 mph 30 % 0.0 in 30.0 W/m2 BKN
21:00 32.9 °F 13.0 °F 1014.4 in South 13.0 mph   30 % 0.0 in 25.0 W/m2 BKN
21:05 32.7 °F 13.4 °F 1014.4 in SSE 11.1 mph 11.1 mph 31 % 0.0 in 21.0 W/m2 BKN
21:10 32.6 °F 13.3 °F 1014.8 in SSE 9.7 mph 9.7 mph 31 % 0.0 in 18.0 W/m2 BKN
21:15 32.5 °F 13.2 °F 1014.8 in Calm     31 % 0.0 in 14.0 W/m2 BKN
21:20 32.3 °F 13.6 °F 1014.8 in SSE 7.4 mph 7.4 mph 32 % 0.0 in 11.0 W/m2 BKN
21:30 32.1 °F 13.3 °F 1014.8 in SSE 5.6 mph 6.8 mph 32 % 0.0 in 0.0 W/m2 OVC
21:35 31.9 °F 13.6 °F 1014.8 in South 5.6 mph 5.6 mph 33 % 0.0 in 0.0 W/m2 OVC
21:40 31.8 °F 13.5 °F 1014.8 in South 5.6 mph   33 % 0.0 in 0.0 W/m2 OVC
21:45 31.7 °F 13.4 °F 1014.8 in Calm     33 % 0.0 in 0.0 W/m2 OVC
21:50 31.5 °F 13.3 °F 1014.8 in Calm     33 % 0.0 in 0.0 W/m2 CLR
21:55 31.3 °F 13.6 °F 1014.8 in Calm     34 % 0.0 in 0.0 W/m2 CLR
22:00 31.2 °F 13.4 °F 1014.8 in Calm     34 % 0.0 in 0.0 W/m2 CLR
22:05 31.0 °F 13.3 °F 1015.1 in Calm     34 % 0.0 in 0.0 W/m2 CLR
22:10 30.8 °F 13.6 °F 1015.1 in Calm     35 % 0.0 in 0.0 W/m2 CLR
22:15 30.7 °F 13.1 °F 1015.1 in Calm     34 % 0.0 in 0.0 W/m2 CLR
22:20 30.6 °F 12.9 °F 1015.1 in Calm     34 % 0.0 in 0.0 W/m2 CLR
22:25 30.4 °F 13.2 °F 1015.1 in Calm     35 % 0.0 in 0.0 W/m2 CLR
22:30 30.3 °F 13.1 °F 1015.5 in Calm     35 % 0.0 in 0.0 W/m2 CLR
22:35 30.2 °F 13.5 °F 1015.5 in Calm     36 % 0.0 in 0.0 W/m2 CLR
22:40 29.9 °F 12.8 °F 1015.5 in Calm     35 % 0.0 in 0.0 W/m2 CLR
22:45 29.8 °F 13.2 °F 1015.5 in Calm     36 % 0.0 in 0.0 W/m2 CLR
22:50 29.7 °F 13.0 °F 1015.8 in Calm     36 % 0.0 in 0.0 W/m2 CLR
22:55 29.4 °F 12.8 °F 1015.8 in Calm     36 % 0.0 in 0.0 W/m2 CLR
23:00 29.3 °F 13.1 °F 1015.8 in Calm     37 % 0.0 in 0.0 W/m2 CLR
23:05 29.1 °F 13.3 °F 1015.8 in Calm     38 % 0.0 in 0.0 W/m2 CLR
23:10 28.8 °F 13.5 °F 1015.8 in Calm     39 % 0.0 in 0.0 W/m2 CLR
23:15 28.6 °F 13.6 °F 1015.8 in Calm     40 % 0.0 in 0.0 W/m2 CLR
23:20 28.3 °F 14.2 °F 1015.8 in Calm     42 % 0.0 in 0.0 W/m2 CLR
23:30 27.8 °F 14.4 °F 1015.8 in Calm     44 % 0.0 in 0.0 W/m2 CLR
23:35 27.6 °F 14.3 °F 1015.8 in Calm     44 % 0.0 in 0.0 W/m2 CLR
23:40 27.5 °F 14.2 °F 1015.8 in Calm     44 % 0.0 in 0.0 W/m2 CLR
23:45 27.4 °F 14.4 °F 1015.8 in Calm     45 % 0.0 in 0.0 W/m2 CLR
23:50 27.3 °F 14.7 °F 1015.8 in Calm     46 % 0.0 in 0.0 W/m2 CLR
23:55 27.0 °F 14.7 °F 1015.8 in Calm     47 % 0.0 in 0.0 W/m2 CLR
Lo Temps de Massalio
Compliments of Weather Underground - 1.25 mb